Other Public Products
Issued by NWS Grand Forks, ND

Home | Current Version | Previous Version | Graphics & Text | Print | Product List | Glossary On
Versions: 1 2 3 4 5 6 7 8 9 10 11 12 13 14 15 16 17 18 19 20 21 22 23 24 25 26 27 28 29 30 31 32 33 34 35 36 37 38 39 40 41 42 43 44 45 46 47 48 49 50
000
FPUS83 KFGF 020310
OPUFGF
PRAIRIE TO PINES WEATHER ROUNDUP
NATIONAL WEATHER SERVICE EASTERN NORTH DAKOTA/GRAND FORKS ND
1000 PM CDT WED JUL 01 2015

 **SATELLITE DATA USED TO AUGMENT SKY COVER AT AUTOMATED STATIONS**
 *****  WEATHER ACROSS EASTERN NORTH DAKOTA  *****

CITY           SKY/WX    TMP DP  RH WIND       PRES   REMARKS
GRAND FORKS    PTCLDY    67  62  84 S6        29.93S
GRAND FORKS AF PTCLDY    67  62  84 S6        29.95R
GRAND CITY NWS   N/A     68 N/A N/A S7          N/A
BUXTON         NOT AVBL
DEVILS LAKE    MOCLDY    70  61  73 SE7       29.93S
FARGO          CLEAR     68  56  65 S7        29.97R
WAHPETON ARPT  CLEAR     63  55  77 SE6       29.98R
$$

 *****  WEATHER ACROSS CENTRAL AND WESTERN NORTH DAKOTA  *****

CITY           SKY/WX    TMP DP  RH WIND       PRES   REMARKS
JAMESTOWN      PTCLDY    68  63  84 SE6       29.95S
BISMARCK       MOCLDY    69  65  86 SE3       29.95R
MINOT          MOCLDY    67  63  87 CALM      29.94R FOG
MINOT AFB      MOCLDY    68  68 100 E3        29.94R
GARRISON         N/A     70  65  84 E3        29.95R
WILLISTON      CLOUDY    72  58  61 CALM      29.97R HAZE
DICKINSON      CLOUDY    68  62  81 CALM      29.97R
HETTINGER      MOCLDY    68  62  81 NW3       30.03R
$$

 *****  OTHER OBSERVATIONS NORTHEAST NORTH DAKOTA  *****

CITY           SKY/WX    TMP DP  RH WIND       PRES   REMARKS
WALHALLA       FAIR      68  68 100 MISG      29.93S
LANGDON        FAIR      64  61  88 S8        29.95S
CAVALIER       FAIR      70  64  83 CALM      29.92S
GRAFTON        FAIR      66  63  88 S7        29.94R
CANDO          FAIR      66  59  77 SE7       29.94F
FORT TOTTEN      N/A     69  60  73 SE3       29.95S
ROLLA          FAIR      66  64  94 CALM      29.96S
RUGBY          NOT AVBL
 ***** THE ABOVE OBSERVATIONS ARE NON NWS ARE NOT QUALITY
        CONTROLLED AND MAY MIS-REPORT RAIN FOR SNOW...
$$

 *****  OTHER OBSERVATIONS SOUTHEAST NORTH DAKOTA *****

CITY           SKY/WX    TMP DP  RH WIND       PRES   REMARKS
COOPERSTOWN    NOT AVBL
VALLEY CITY    FAIR      66  63  88 SE6       29.97R
OAKES            N/A     64  64 100 SE6       29.97R
GWINNER          N/A     66  64  94 SE5       29.97S
SHEYENNE NWR     N/A     63  58  83 SE2       29.95S
BUFFALO        NOT AVBL
WYNDMERE       NOT AVBL
 ***** THE ABOVE OBSERVATIONS ARE NON NWS ARE NOT QUALITY
       CONTROLLED AND MAY MIS-REPORT RAIN FOR SNOW...
$$

  *****  WEATHER ACROSS NORTHERN MINNESOTA  *****

CITY           SKY/WX    TMP DP  RH WIND       PRES   REMARKS
FLAG ISLAND    NOT AVBL
WARROAD        PTCLDY    66  63  88 CALM      29.96R
ROSEAU         PTCLDY    66  61  82 CALM      29.95R
HALLOCK        NOT AVBL
THF RVR FALLS  PTCLDY    68  61  77 S3        29.97R
HALSTAD        NOT AVBL
FOSSTON        CLEAR     63  57  82 CALM      29.99R
BAUDETTE       PTCLDY    64  60  87 CALM      29.95S
WASKISH        PTCLDY    63  59  88 CALM      29.96S FOG
CROOKSTON      CLEAR     66  61  82 SW5       29.96R
$$
  *****  WEATHER ACROSS CENTRAL AND WEST MINNESOTA  *****

CITY           SKY/WX    TMP DP  RH WIND       PRES   REMARKS
BEMIDJI        LGT RAIN  68  64  86 SW5       29.98R
PARK RAPIDS    CLOUDY    69  58  67 S5        30.00R
WADENA           N/A     63  55  77 CALM      30.00R
DETROIT LAKES  PTCLDY    66  55  68 SW3       30.01R
MOORHEAD       CLEAR     66  57  72 CALM      29.98R
FERGUS FALLS   CLEAR     64  55  72 SE5       29.99R
ELBOW LAKE     FAIR      62  56  80 SE6       30.00R
MORRIS MN      CLEAR     63  57  82 SE7       29.99R HAZE
STAPLES        CLEAR     63  55  77 SW3       30.01R
WHEATON        CLEAR     59  55  88 SE6       30.00R
$$
  *****  WEATHER ELSEWHERE ACROSS MINNESOTA  *****

CITY           SKY/WX    TMP DP  RH WIND       PRES   REMARKS
DULUTH         PTCLDY    60  51  72 SE3       30.01S
INTRNTL FALLS  PTCLDY    57  55  93 CALM      29.96S
ELY            CLEAR     63  54  72 S3        30.00R
CLOQUET        PTCLDY    61  54  77 SE3       30.01S
BRAINERD       CLEAR     62  56  80 S3        30.01R
HIBBING        PTCLDY    59  57  93 S3        29.99R
ALEXANDRIA     CLEAR     64  55  72 SE7       30.02R
SAINT CLOUD    CLEAR     60  54  80 CALM      30.01R
MINNEAPOLIS    PTCLDY    67  53  61 SW5       30.02R
$$

  *****  WEATHER ACROSS SOUTH DAKOTA  *****

CITY           SKY/WX    TMP DP  RH WIND       PRES   REMARKS
SIOUX FALLS    MOCLDY    67  51  56 SE9       29.96R
BROOKINGS      CLEAR     64  55  72 E9        30.00R
WATERTOWN      PTCLDY    64  55  72 SE6       29.98R
HURON          PTCLDY    69  65  86 SE7       29.94R
SISSETON         N/A     62  57  83 S7        29.97R
ABERDEEN       PTCLDY    68  62  81 E7        29.95R
MITCHELL       MOCLDY    71  66  84 SE8       29.93F
PIERRE         CLOUDY    71  66  84 E6        29.92R
MOBRIDGE       MOCLDY    73  67  81 E9        29.93R
RAPID CITY     CLEAR     69  64  84 E5        30.00R
$$

  *****  SOME WEATHER IN NEARBY STATES *****

CITY           SKY/WX    TMP DP  RH WIND       PRES   REMARKS
GLASGOW MT     PTCLDY    66  51  58 SE7       30.03R
GREAT FALLS MT CLEAR     73  52  47 N9        30.12R
CHEYENNE WY    LGT RAIN  62  56  80 NW14G21   30.24R
SCOTTSBLUFF NE LGT RAIN  70 N/A N/A CALM      30.05R
OMAHA NE       PTCLDY    73  66  78 NE8       29.90R
DES MOINES IA  MOCLDY    69  56  62 E9        29.94R
DAVENPORT IA   CLOUDY    64  55  72 NE10      29.97R
CHICAGO IL     CLOUDY    56  50  80 NE7       30.00S
EAU CLAIRE WI  CLEAR     60  55  83 CALM      30.00R
LA CROSSE WI   CLEAR     62  54  74 CALM      30.01R
$$

  *****  SOME NATIONAL WEATHER *****

CITY           SKY/WX    TMP DP  RH WIND       PRES   REMARKS
LA GUARDIA NY  CLOUDY    79  58  48 W10       29.85R
RALEIGH NC     CLOUDY    78  70  76 SW14      29.96R
ATLANTA GA     CLOUDY    70  67  90 S5        30.07R
NEW ORLEANS LA CLOUDY    78  73  84 S6        30.09R
OKLAHOMA CITY  PTCLDY    82  69  64 S10       29.88R
ALBUQUERQUE NM MOCLDY    90  45  21 E8        30.05R
SALT LAKE CITY MOCLDY    91  49  23 NW8       29.97S
LOS ANGELES CA MOCLDY    67  64  90 W10       29.93R
BOISE ID       PTCLDY    94  41  16 N7        29.89S HX  90
SEATTLE WA     CLEAR     85  55  35 N13       29.96R
$$

*** WEATHER ACROSS MANITOBA...SASKATCHEWAN AND ONTARIO ***
                ***ONTARIO***

CITY           SKY/WX    TMP DP  RH WIND       PRES   REMARKS
GERALDTON      PTCLDY    57  48  72 W2        29.99R
THUNDER BAY    MOCLDY    57  52  82 NE3       29.99R
SIOUX LOOKOUT  CLOUDY    57  55  94 SE3       29.96R
TORONTO        MOCLDY    63  54  72 NW9       29.92R
BIG TROUT LK   CLEAR     54  46  76 NE3       29.92R
PICKLE LAKE    NOT AVBL
DRYDEN         MOCLDY    68  57  68 S3        29.96R
KENORA         CLOUDY    70  57  64 SW6       29.96R
$$
                *** MANITOBA***

CITY           SKY/WX    TMP DP  RH WIND       PRES   REMARKS
BRANDON        CLOUDY    64  63  94 W2        29.93R SMOKE
DAUPHIN        PTCLDY    68  61  77 SW6       29.90R
ISLAND LAKE    PTCLDY    68  55  64 CALM      29.89R
PILOT MOUND      N/A     63  57  82 S6          N/A
THE PAS        CLOUDY    64  61  88 CALM      29.90R SMOKE
THOMPSON       MOCLDY    64  50  59 CALM      29.87S
WINNIPEG       CLOUDY    70  61  73 S5        29.92S
LYNN LAKE      MOCLDY    63  57  82 SW3       29.87F
CHURCHILL      MOCLDY    66  52  59 S13       29.78F
GILLAM         MOCLDY    66  46  48 S6        29.86F
$$
                ***SASKATCHEWAN***

CITY           SKY/WX    TMP DP  RH WIND       PRES   REMARKS
ESTEVAN        CLOUDY    66  64  94 NW2       29.96R SMOKE
KINDERSLEY     MOCLDY    64  61  88 N8        30.03R
LLOYDMINSTER   CLOUDY    66  61  82 W7        30.02R SMOKE
PRINCE ALBERT    N/A     68  63  83 N8        29.93R SMOKE
REGINA         MOCLDY    68  63  83 NW3       29.97R


USA.gov is the U.S. government's official web portal to all federal, state and local government web resources and services.